******** Week 145 almanac for PRN-1 ******** ID: 1 Health: 0 Eccentricity: 0.01126813889 Time of Applicability(s): 319488 Orbital Inclination(rad): 0.9863999804 Rate of Right Ascen(r/s): -8.034620388e-09 SQRT(A) (m 1/2): 5153.622559 Right Ascen at Week(rad): -1.410855985 Argument of Perigee(rad): 0.8821164764 Mean Anom(rad): 2.531841658 Af0(s): 0.0003579953003 Af1(s/s): -1.091394e-11 week: 145 ******** Week 145 almanac for PRN-2 ******** ID: 2 Health: 0 Eccentricity: 0.02069425583 Time of Applicability(s): 319488 Orbital Inclination(rad): 0.9647564702 Rate of Right Ascen(r/s): -8.160339911e-09 SQRT(A) (m 1/2): 5153.625 Right Ascen at Week(rad): -1.499613402 Argument of Perigee(rad): -1.454808879 Mean Anom(rad): 2.691699983 Af0(s): -0.0005132522095 Af1(s/s): 0 week: 145 ******** Week 145 almanac for PRN-3 ******** ID: 3 Health: 0 Eccentricity: 0.003867149353 Time of Applicability(s): 319488 Orbital Inclination(rad): 0.97252824 Rate of Right Ascen(r/s): -7.874613723e-09 SQRT(A) (m 1/2): 5153.652832 Right Ascen at Week(rad): -0.3752848795 Argument of Perigee(rad): 0.9728861193 Mean Anom(rad): 1.366427842 Af0(s): -6.707701416e-05 Af1(s/s): -1.455192e-11 week: 145 ******** Week 145 almanac for PRN-4 ******** ID: 4 Health: 0 Eccentricity: 0.001652240753 Time of Applicability(s): 319488 Orbital Inclination(rad): 0.9611612027 Rate of Right Ascen(r/s): -7.646032773e-09 SQRT(A) (m 1/2): 5153.615723 Right Ascen at Week(rad): 0.7054562679 Argument of Perigee(rad): -3.10158332 Mean Anom(rad): -1.932466378 Af0(s): -0.0001537495605 Af1(s/s): 3.637979e-12 week: 145 ******** Week 145 almanac for PRN-5 ******** ID: 5 Health: 0 Eccentricity: 0.005893707275 Time of Applicability(s): 319488 Orbital Inclination(rad): 0.9595013876 Rate of Right Ascen(r/s): -8.034620388e-09 SQRT(A) (m 1/2): 5153.604004 Right Ascen at Week(rad): -0.4153163103 Argument of Perigee(rad): 1.011750212 Mean Anom(rad): -1.103613415 Af0(s): -5.426455078e-05 Af1(s/s): 0 week: 145 ******** Week 145 almanac for PRN-6 ******** ID: 6 Health: 0 Eccentricity: 0.002645492554 Time of Applicability(s): 319488 Orbital Inclination(rad): 0.9857827928 Rate of Right Ascen(r/s): -8.023191341e-09 SQRT(A) (m 1/2): 5153.60498 Right Ascen at Week(rad): -1.41912922 Argument of Perigee(rad): -0.9951891364 Mean Anom(rad): 2.895639658 Af0(s): 0.0001386760742 Af1(s/s): 1.091394e-11 week: 145 ******** Week 145 almanac for PRN-7 ******** ID: 7 Health: 0 Eccentricity: 0.01544189453 Time of Applicability(s): 319488 Orbital Inclination(rad): 0.9505311952 Rate of Right Ascen(r/s): -8.068907531e-09 SQRT(A) (m 1/2): 5153.635254 Right Ascen at Week(rad): 1.724878256 Argument of Perigee(rad): -2.294893683 Mean Anom(rad): 1.868551885 Af0(s): 0.0002396684326 Af1(s/s): 3.637979e-12 week: 145 ******** Week 145 almanac for PRN-8 ******** ID: 8 Health: 0 Eccentricity: 0.007158756256 Time of Applicability(s): 319488 Orbital Inclination(rad): 0.9652598076 Rate of Right Ascen(r/s): -7.668890868e-09 SQRT(A) (m 1/2): 5153.666504 Right Ascen at Week(rad): -2.490404702 Argument of Perigee(rad): 0.08362704495 Mean Anom(rad): -1.457700073 Af0(s): -4.14520874e-05 Af1(s/s): 0 week: 145 ******** Week 145 almanac for PRN-9 ******** ID: 9 Health: 0 Eccentricity: 0.002326965332 Time of Applicability(s): 319488 Orbital Inclination(rad): 0.9541863838 Rate of Right Ascen(r/s): -7.714607058e-09 SQRT(A) (m 1/2): 5153.59082 Right Ascen at Week(rad): 0.6527238058 Argument of Perigee(rad): 1.858607226 Mean Anom(rad): -1.120240404 Af0(s): -0.0002826278686 Af1(s/s): 0 week: 145 ******** Week 145 almanac for PRN-10 ******** ID: 10 Health: 0 Eccentricity: 0.007444858551 Time of Applicability(s): 319488 Orbital Inclination(rad): 0.9723604609 Rate of Right Ascen(r/s): -7.863184676e-09 SQRT(A) (m 1/2): 5153.635742 Right Ascen at Week(rad): -0.3780828216 Argument of Perigee(rad): -2.532389936 Mean Anom(rad): 0.5190648689 Af0(s): -0.0002351463867 Af1(s/s): -1.091394e-11 week: 145 ******** Week 145 almanac for PRN-11 ******** ID: 11 Health: 255 Eccentricity: 0.000292301178 Time of Applicability(s): 319488 Orbital Inclination(rad): 0.9615147373 Rate of Right Ascen(r/s): -8.286059433e-09 SQRT(A) (m 1/2): 5153.707031 Right Ascen at Week(rad): -1.366436456 Argument of Perigee(rad): 2.865959227 Mean Anom(rad): -1.610213941 Af0(s): -4.672780762e-05 Af1(s/s): -3.637979e-11 week: 145 ******** Week 145 almanac for PRN-12 ******** ID: 12 Health: 0 Eccentricity: 0.008595466614 Time of Applicability(s): 319488 Orbital Inclination(rad): 0.9708804091 Rate of Right Ascen(r/s): -7.668890868e-09 SQRT(A) (m 1/2): 5153.566895 Right Ascen at Week(rad): 2.837435648 Argument of Perigee(rad): 1.238164428 Mean Anom(rad): 1.205898026 Af0(s): -0.0001251099365 Af1(s/s): -7.275958e-12 week: 145 ******** Week 145 almanac for PRN-13 ******** ID: 13 Health: 0 Eccentricity: 0.005798816681 Time of Applicability(s): 319488 Orbital Inclination(rad): 0.9685434852 Rate of Right Ascen(r/s): -7.566029441e-09 SQRT(A) (m 1/2): 5153.630859 Right Ascen at Week(rad): 0.8051182058 Argument of Perigee(rad): 0.9692455365 Mean Anom(rad): -2.067051471 Af0(s): 0.0001959553223 Af1(s/s): 7.275958e-12 week: 145 ******** Week 145 almanac for PRN-14 ******** ID: 14 Health: 0 Eccentricity: 0.001339912415 Time of Applicability(s): 319488 Orbital Inclination(rad): 0.9542762655 Rate of Right Ascen(r/s): -7.806039438e-09 SQRT(A) (m 1/2): 5153.591309 Right Ascen at Week(rad): 2.806580389 Argument of Perigee(rad): 3.037801777 Mean Anom(rad): 1.24928504 Af0(s): -5.727924805e-05 Af1(s/s): -3.637979e-12 week: 145 ******** Week 145 almanac for PRN-15 ******** ID: 15 Health: 0 Eccentricity: 0.01392650604 Time of Applicability(s): 319488 Orbital Inclination(rad): 0.9300980917 Rate of Right Ascen(r/s): -7.920329913e-09 SQRT(A) (m 1/2): 5153.677246 Right Ascen at Week(rad): 0.5474015687 Argument of Perigee(rad): 1.070762408 Mean Anom(rad): -2.46837133 Af0(s): -7.159906006e-05 Af1(s/s): 3.637979e-12 week: 145 ******** Week 145 almanac for PRN-16 ******** ID: 16 Health: 0 Eccentricity: 0.01266527176 Time of Applicability(s): 319488 Orbital Inclination(rad): 0.9708564407 Rate of Right Ascen(r/s): -7.668890868e-09 SQRT(A) (m 1/2): 5153.540527 Right Ascen at Week(rad): 2.856059508 Argument of Perigee(rad): 0.6986203911 Mean Anom(rad): -0.6499101345 Af0(s): -0.0003617636719 Af1(s/s): -3.637979e-12 week: 145 ******** Week 145 almanac for PRN-17 ******** ID: 17 Health: 0 Eccentricity: 0.01369905472 Time of Applicability(s): 319488 Orbital Inclination(rad): 0.9802940178 Rate of Right Ascen(r/s): -7.554600394e-09 SQRT(A) (m 1/2): 5153.704102 Right Ascen at Week(rad): -2.408928077 Argument of Perigee(rad): -1.506494969 Mean Anom(rad): -1.553653268 Af0(s): 0.000445421521 Af1(s/s): 3.637979e-12 week: 145 ******** Week 145 almanac for PRN-18 ******** ID: 18 Health: 0 Eccentricity: 0.002088546753 Time of Applicability(s): 319488 Orbital Inclination(rad): 0.9701913162 Rate of Right Ascen(r/s): -8.171768958e-09 SQRT(A) (m 1/2): 5153.575195 Right Ascen at Week(rad): -1.402635556 Argument of Perigee(rad): 3.112097605 Mean Anom(rad): 2.718001986 Af0(s): 0.0002034920654 Af1(s/s): -7.275958e-12 week: 145 ******** Week 145 almanac for PRN-19 ******** ID: 19 Health: 0 Eccentricity: 0.00893831253 Time of Applicability(s): 319488 Orbital Inclination(rad): 0.9789937294 Rate of Right Ascen(r/s): -7.600316584e-09 SQRT(A) (m 1/2): 5153.639648 Right Ascen at Week(rad): -2.364023186 Argument of Perigee(rad): 1.998081882 Mean Anom(rad): 0.8465929867 Af0(s): 8.516519775e-05 Af1(s/s): 3.637979e-12 week: 145 ******** Week 145 almanac for PRN-20 ******** ID: 20 Health: 0 Eccentricity: 0.005272865295 Time of Applicability(s): 319488 Orbital Inclination(rad): 0.9416269161 Rate of Right Ascen(r/s): -8.263201338e-09 SQRT(A) (m 1/2): 5153.67627 Right Ascen at Week(rad): -0.528823773 Argument of Perigee(rad): 3.10690469 Mean Anom(rad): -2.697908935 Af0(s): 0.0004084914795 Af1(s/s): 0 week: 145 ******** Week 145 almanac for PRN-21 ******** ID: 21 Health: 0 Eccentricity: 0.02454805374 Time of Applicability(s): 319488 Orbital Inclination(rad): 0.958992058 Rate of Right Ascen(r/s): -8.171768958e-09 SQRT(A) (m 1/2): 5153.540527 Right Ascen at Week(rad): -1.50107323 Argument of Perigee(rad): -1.023296638 Mean Anom(rad): -1.390318769 Af0(s): 0.0001236025879 Af1(s/s): 0 week: 145 ******** Week 145 almanac for PRN-22 ******** ID: 22 Health: 255 Eccentricity: 0.006906509399 Time of Applicability(s): 319488 Orbital Inclination(rad): 0.938373199 Rate of Right Ascen(r/s): -8.274630386e-09 SQRT(A) (m 1/2): 5153.576172 Right Ascen at Week(rad): -0.4830414123 Argument of Perigee(rad): -0.8544857223 Mean Anom(rad): -2.655409503 Af0(s): -0.0003270946533 Af1(s/s): 7.275958e-12 week: 145 ******** Week 145 almanac for PRN-23 ******** ID: 23 Health: 0 Eccentricity: 0.001955032349 Time of Applicability(s): 319488 Orbital Inclination(rad): 0.9673929997 Rate of Right Ascen(r/s): -7.920329913e-09 SQRT(A) (m 1/2): 5153.654297 Right Ascen at Week(rad): -0.4027939188 Argument of Perigee(rad): 2.921102765 Mean Anom(rad): 1.864588478 Af0(s): 7.536743164e-06 Af1(s/s): -3.637979e-12 week: 145 ******** Week 145 almanac for PRN-24 ******** ID: 24 Health: 0 Eccentricity: 0.01229047775 Time of Applicability(s): 319488 Orbital Inclination(rad): 0.9340109412 Rate of Right Ascen(r/s): -8.240343243e-09 SQRT(A) (m 1/2): 5153.628906 Right Ascen at Week(rad): 1.642548504 Argument of Perigee(rad): 0.8018393968 Mean Anom(rad): 2.83581965 Af0(s): 0.0002193192261 Af1(s/s): 0 week: 145 ******** Week 145 almanac for PRN-25 ******** ID: 25 Health: 0 Eccentricity: 0.01038980484 Time of Applicability(s): 319488 Orbital Inclination(rad): 0.9582490361 Rate of Right Ascen(r/s): -7.806039438e-09 SQRT(A) (m 1/2): 5153.667969 Right Ascen at Week(rad): 2.761072916 Argument of Perigee(rad): 0.9727696477 Mean Anom(rad): 0.971348019 Af0(s): 0.0002163045288 Af1(s/s): 7.275958e-12 week: 145 ******** Week 145 almanac for PRN-26 ******** ID: 26 Health: 0 Eccentricity: 0.006795883179 Time of Applicability(s): 319488 Orbital Inclination(rad): 0.939062292 Rate of Right Ascen(r/s): -8.034620388e-09 SQRT(A) (m 1/2): 5153.626465 Right Ascen at Week(rad): 2.714599964 Argument of Perigee(rad): 0.3522549443 Mean Anom(rad): 0.3221123716 Af0(s): 0.0001386760742 Af1(s/s): 3.637979e-12 week: 145 ******** Week 145 almanac for PRN-27 ******** ID: 27 Health: 0 Eccentricity: 0.01005363464 Time of Applicability(s): 319488 Orbital Inclination(rad): 0.9739303943 Rate of Right Ascen(r/s): -7.600316584e-09 SQRT(A) (m 1/2): 5153.609375 Right Ascen at Week(rad): -2.471202604 Argument of Perigee(rad): 0.6306518596 Mean Anom(rad): -1.525595202 Af0(s): 6.104761963e-05 Af1(s/s): 2.182787e-11 week: 145 ******** Week 145 almanac for PRN-29 ******** ID: 29 Health: 0 Eccentricity: 0.001776218414 Time of Applicability(s): 319488 Orbital Inclination(rad): 0.982277407 Rate of Right Ascen(r/s): -7.566029441e-09 SQRT(A) (m 1/2): 5153.724609 Right Ascen at Week(rad): -2.395974253 Argument of Perigee(rad): 2.284862137 Mean Anom(rad): -1.415151206 Af0(s): -0.0003708077637 Af1(s/s): -3.637979e-12 week: 145 ******** Week 145 almanac for PRN-30 ******** ID: 30 Health: 0 Eccentricity: 0.005424976349 Time of Applicability(s): 319488 Orbital Inclination(rad): 0.9357007169 Rate of Right Ascen(r/s): -8.228914196e-09 SQRT(A) (m 1/2): 5153.520508 Right Ascen at Week(rad): 1.738432789 Argument of Perigee(rad): -2.750930517 Mean Anom(rad): 1.88555413 Af0(s): -0.0004009547363 Af1(s/s): -3.637979e-12 week: 145 ******** Week 145 almanac for PRN-31 ******** ID: 31 Health: 0 Eccentricity: 0.01046466827 Time of Applicability(s): 319488 Orbital Inclination(rad): 0.9547616266 Rate of Right Ascen(r/s): -8.023191341e-09 SQRT(A) (m 1/2): 5153.61084 Right Ascen at Week(rad): 1.742871821 Argument of Perigee(rad): 0.3674157379 Mean Anom(rad): 1.417664149 Af0(s): -0.0001266172852 Af1(s/s): 0 week: 145 ******** Week 145 almanac for PRN-32 ******** ID: 32 Health: 0 Eccentricity: 0.005434036255 Time of Applicability(s): 319488 Orbital Inclination(rad): 0.9580393121 Rate of Right Ascen(r/s): -7.646032773e-09 SQRT(A) (m 1/2): 5153.720215 Right Ascen at Week(rad): 0.6638047198 Argument of Perigee(rad): -2.372242866 Mean Anom(rad): -0.8480367113 Af0(s): -4.220576172e-05 Af1(s/s): -7.275958e-12 week: 145